RH
7 8 8 7 8 9 9 11 9 8 7 7 8 7 7 9 33 58 59 57 55 62 63 42 48 75 94 106 95 87 93 97 103 96 74 48 48 85 97 79 73 69 63 56 47 42 43 44 49 53 54 56 61 64 69 71 68 58 42 29 22 20 20 17 15 16 17 17 17 16 13 12 18 20 15 16 17 19 22 23 25 27 26 28 27 30
7 8 9 8 8 8 9 10 9 8 7 8 8 7 9 4 20 50 54 51 55 65 63 35 43 82 96 103 98 88 94 99 101 100 92 67 45 66 91 81 74 74 66 62 55 44 44 45 42 48 53 54 57 58 64 70 69 64 56 43 30 22 20 20 17 15 19 24 24 20 14 12 18 20 15 15 16 16 19 20 23 25 25 27 28 29
8 8 8 9 8 8 8 9 8 9 7 8 8 7 10 6 10 32 46 64 84 90 78 42 44 91 105 99 101 92 87 95 101 101 101 90 64 55 68 70 68 74 71 63 61 50 45 46 43 45 50 53 55 52 56 67 70 67 62 54 43 30 22 21 20 16 19 28 27 20 15 14 20 22 16 13 15 15 16 18 19 22 23 25 25 27
9 8 8 9 9 8 8 9 8 9 8 8 9 7 8 8 6 17 44 81 102 98 89 65 48 76 99 99 101 96 87 93 100 101 100 102 93 70 57 57 59 71 77 68 61 57 49 47 46 46 47 51 54 49 46 56 69 71 66 61 53 41 28 23 23 19 18 27 28 19 16 17 20 23 20 15 15 15 15 16 17 19 20 22 23 25
10 9 9 9 9 9 7 8 9 8 10 8 8 8 7 9 7 10 35 76 100 98 97 99 85 80 94 101 100 99 96 95 97 100 101 100 104 93 70 57 53 61 74 73 65 59 53 49 47 48 47 48 51 49 41 42 57 70 70 66 60 52 40 28 26 24 19 21 22 17 19 29 28 23 24 22 16 14 15 15 16 17 17 19 21 22
10 10 10 9 8 9 7 7 8 8 10 10 8 9 7 8 8 7 18 40 67 85 86 88 89 86 93 101 100 100 101 101 98 99 102 100 103 105 93 73 59 56 63 73 74 63 55 51 48 50 49 48 49 49 45 39 43 56 67 69 63 58 52 41 32 30 25 20 18 16 21 34 36 26 25 25 19 15 15 15 15 16 17 17 18 20
10 10 9 9 8 9 8 6 7 8 9 10 9 8 7 8 8 8 15 20 30 55 65 62 76 93 98 97 98 100 101 100 99 99 101 101 101 105 105 92 72 61 61 73 83 74 60 50 46 50 51 50 50 47 45 42 39 43 54 66 67 60 56 55 45 36 32 27 21 19 20 28 31 26 21 21 22 18 15 16 16 15 16 17 17 19
11 10 9 11 10 8 9 6 6 8 9 11 9 7 7 8 7 7 15 20 21 40 57 54 64 89 100 98 98 101 101 97 96 99 100 102 104 103 104 101 89 76 66 71 86 83 68 54 45 49 54 52 51 50 45 42 40 39 42 55 67 63 56 65 67 51 39 35 30 23 20 26 30 25 19 19 24 23 17 17 17 18 17 16 17 19
12 11 10 12 10 8 9 7 7 8 8 9 8 8 7 6 8 8 10 18 23 37 53 54 57 78 96 100 99 101 100 97 96 99 101 104 106 100 98 103 102 95 75 66 84 92 79 66 52 48 55 55 54 54 50 44 39 38 38 42 59 66 59 67 84 77 55 41 38 32 23 24 28 24 20 19 24 25 20 16 16 20 20 16 17 19
12 10 10 11 10 9 9 8 9 8 8 9 8 9 8 7 8 8 9 14 22 32 38 41 49 68 92 102 103 102 98 98 100 100 101 102 101 98 98 102 104 105 91 69 78 97 91 77 65 52 51 58 59 56 54 52 44 40 39 36 46 63 67 71 85 92 79 55 41 40 34 26 24 23 21 20 24 26 22 17 16 18 19 19 18 17
11 8 11 12 10 11 10 9 9 9 8 8 8 9 8 8 8 8 10 9 24 47 47 39 42 50 70 90 98 101 100 102 102 99 100 99 100 100 98 103 103 103 102 80 70 92 100 88 75 61 52 55 60 59 57 57 53 47 42 38 37 50 68 77 81 90 95 78 52 42 42 36 29 28 26 22 23 25 23 18 17 16 17 22 22 19
13 10 13 13 11 11 10 9 9 9 8 7 8 10 9 9 8 8 11 8 26 64 67 52 48 45 54 73 88 100 102 103 102 100 102 101 100 100 98 104 101 95 103 90 67 76 94 91 78 68 62 57 57 60 60 59 58 54 47 43 38 39 54 69 72 79 94 96 74 49 43 45 40 34 32 29 25 23 22 21 21 17 14 19 22 21
14 13 15 16 13 13 11 9 10 9 9 7 7 9 9 10 10 7 10 8 18 49 63 57 52 54 71 84 92 102 101 99 101 100 102 102 100 100 101 102 99 96 101 91 70 65 76 81 74 67 66 62 58 61 63 60 58 58 53 47 42 37 42 54 61 66 82 101 95 65 46 46 48 44 39 37 34 29 26 23 26 27 20 16 16 18
15 14 18 19 15 15 14 11 11 10 9 8 7 9 10 11 12 9 9 8 10 23 40 49 46 52 84 104 98 99 100 98 100 99 99 101 98 99 101 96 92 93 86 75 69 63 62 70 71 68 67 63 59 61 64 64 60 60 57 52 49 41 36 42 50 54 68 93 101 83 59 47 47 48 46 44 42 38 34 29 28 32 28 20 16 15
16 16 20 21 17 15 15 12 12 11 10 9 7 8 10 11 12 11 8 8 10 13 17 28 36 39 69 102 102 97 100 100 101 100 99 100 98 99 101 97 92 86 71 62 66 62 55 60 68 72 68 61 58 58 62 69 67 64 61 56 54 49 39 35 39 44 56 78 93 90 78 65 54 50 51 50 48 44 42 40 35 31 29 25 27 27
18 19 21 21 17 14 15 13 12 10 9 10 9 8 9 10 12 12 10 7 9 12 8 12 23 25 42 80 100 99 99 100 100 100 100 101 100 98 99 99 99 92 74 61 67 70 59 53 58 64 61 54 53 53 56 69 75 70 67 62 57 54 46 37 33 35 43 61 82 92 89 80 69 61 56 51 52 51 47 47 46 39 32 29 40 48
22 23 23 21 17 15 15 14 11 9 10 11 10 9 9 10 12 12 11 9 7 10 9 8 12 15 31 65 90 100 102 101 102 102 100 100 99 100 101 99 100 101 87 66 63 70 67 57 53 50 47 45 46 46 46 58 75 78 74 70 62 56 51 44 37 33 34 44 66 87 89 78 76 80 74 61 56 56 53 53 56 55 46 36 41 48
23 24 23 21 18 15 15 14 10 9 10 11 10 10 9 9 12 13 11 10 8 9 10 11 9 9 27 58 83 100 104 101 102 102 100 101 99 99 103 100 98 101 99 82 64 60 60 60 56 47 42 41 39 40 41 46 60 72 75 74 70 63 56 50 44 38 37 39 49 72 84 81 83 88 79 68 63 61 60 58 58 62 57 45 41 41
25 26 23 23 20 16 16 15 12 11 10 11 10 9 9 9 9 12 13 11 10 10 9 11 11 7 17 44 73 98 106 100 100 100 97 99 100 100 101 101 99 99 101 98 86 72 61 54 52 48 44 44 38 34 39 44 49 55 62 70 75 72 63 56 50 43 43 47 46 54 71 81 88 86 72 65 65 66 66 63 59 59 59 51 46 44
27 28 25 25 22 17 18 17 14 13 11 10 11 9 9 9 9 10 13 12 12 12 9 9 12 9 11 25 48 81 101 97 97 102 101 99 99 100 99 99 101 100 98 102 99 91 80 62 51 49 46 46 44 35 33 41 48 49 50 59 72 79 73 63 56 48 46 54 54 49 53 64 75 81 74 65 64 64 65 69 68 63 60 56 51 49
29 29 27 26 23 18 20 20 16 15 13 11 10 11 10 9 9 9 11 13 14 13 11 10 10 10 11 14 20 42 64 66 72 90 100 101 100 100 100 100 103 94 86 97 102 97 97 85 64 56 52 48 47 39 32 38 47 49 48 52 65 79 83 72 63 56 49 53 58 54 48 48 55 66 70 70 73 70 62 67 74 72 64 58 54 51
29 29 28 27 24 20 22 23 17 15 15 11 9 10 11 10 10 10 10 12 13 14 12 9 9 9 10 11 12 18 27 32 48 70 84 98 104 102 102 104 105 92 73 85 104 99 99 102 86 69 58 51 48 40 35 37 44 50 56 58 61 73 86 82 70 63 55 51 54 55 51 46 45 52 61 72 84 81 68 64 69 76 73 63 57 55
27 27 27 28 26 23 23 23 18 16 15 12 10 10 11 12 11 10 10 11 12 15 15 11 9 9 9 11 13 17 17 24 48 60 63 87 105 102 102 102 103 101 79 73 97 103 98 102 99 84 76 76 72 58 44 37 38 49 64 68 63 65 83 92 81 70 61 52 51 52 51 47 42 44 51 59 70 77 77 69 62 67 76 73 65 59
27 28 28 28 26 22 23 23 20 19 17 13 10 9 11 12 11 10 10 10 12 13 16 15 10 11 17 17 15 18 19 26 48 50 47 81 105 97 99 101 96 103 90 72 89 105 102 101 101 95 93 98 97 87 74 56 43 45 59 73 71 61 71 88 87 78 68 58 53 50 51 49 42 40 42 44 50 59 69 72 63 57 67 79 77 67
25 29 30 31 28 23 25 27 24 22 19 16 12 10 11 12 11 12 10 10 11 11 14 15 11 12 19 25 33 44 46 43 46 38 36 75 106 97 95 100 96 101 99 88 94 102 100 99 100 99 99 99 99 100 98 85 65 48 49 70 79 65 66 83 87 81 74 65 58 51 50 51 47 41 40 42 46 50 55 63 66 59 61 75 82 79
21 26 30 33 32 27 27 29 27 23 20 17 15 13 14 13 13 14 13 11 11 10 12 13 11 12 14 24 48 72 78 69 58 44 37 61 95 101 97 99 98 99 102 100 99 100 100 98 97 99 100 99 100 99 100 99 89 69 55 65 79 77 82 94 88 76 72 68 63 55 50 51 50 46 44 44 49 52 52 55 59 59 61 66 73 80
20 23 27 32 32 30 31 32 30 25 22 20 18 16 15 13 13 13 12 12 11 9 11 12 11 13 13 20 42 70 85 79 73 76 71 70 88 100 98 99 100 99 103 105 97 95 101 102 100 102 100 97 100 100 98 100 100 92 76 71 81 89 97 101 83 62 59 64 65 61 56 52 50 48 47 46 48 50 52 53 54 55 55 55 58 67
18 20 24 30 32 32 34 36 33 28 24 21 19 17 15 12 12 13 12 12 12 10 10 10 10 12 15 19 28 49 72 76 77 95 100 90 94 100 98 102 104 101 103 107 99 93 98 102 101 103 101 96 97 100 100 99 99 101 94 90 96 100 100 96 78 60 60 63 62 63 62 56 52 49 47 47 47 49 51 52 52 52 50 48 47 50
21 20 21 27 32 33 33 33 32 29 25 22 21 20 17 13 12 12 13 13 13 12 10 9 10 11 15 20 18 27 55 70 73 88 99 95 92 93 97 103 104 102 103 104 97 87 91 102 103 100 99 97 96 99 101 100 99 100 99 99 103 97 89 86 78 72 73 67 59 60 63 61 57 51 47 45 46 49 53 54 53 52 49 46 44 43
25 20 20 24 30 33 34 33 32 29 25 22 23 22 19 16 14 12 12 14 14 15 12 9 10 12 14 19 13 13 35 52 55 65 86 101 98 92 95 99 97 99 101 101 99 86 80 94 106 104 100 100 100 99 100 101 100 100 99 99 100 96 93 94 87 79 79 75 66 62 63 64 63 58 52 48 46 48 53 58 60 56 51 50 48 45
29 23 21 23 27 31 34 34 34 32 27 22 21 22 19 16 15 13 12 13 14 15 15 10 9 11 14 17 15 14 24 38 48 53 65 89 106 103 97 93 93 98 99 98 102 98 86 87 100 104 100 100 102 100 100 101 100 99 99 97 98 99 100 104 97 85 81 80 73 65 62 63 64 64 62 58 51 50 55 61 66 64 58 55 54 50
29 26 23 22 25 29 31 34 36 33 29 25 21 21 20 18 17 15 13 14 13 14 15 14 10 10 15 17 14 15 21 28 40 46 45 64 93 102 102 99 93 95 101 98 96 101 101 95 98 103 101 100 102 102 101 100 98 98 98 97 99 100 99 103 103 94 86 82 75 68 63 61 61 63 67 65 58 55 59 62 65 69 67 62 62 59
29 29 27 23 23 26 28 32 35 33 31 28 23 21 20 18 17 16 14 14 14 14 14 15 11 8 17 24 19 17 21 20 24 29 34 49 70 82 98 109 100 93 100 103 98 100 106 104 103 104 103 101 102 101 102 101 98 99 99 99 100 101 100 102 103 99 94 91 88 79 70 66 63 60 57 61 69 75 76 76 72 65 62 63 67 67
30 31 30 27 24 24 27 29 31 32 31 28 25 23 22 20 18 17 16 14 14 14 14 20 20 11 13 26 28 24 23 21 22 27 35 53 70 74 77 90 100 101 100 101 103 103 102 101 100 98 97 100 101 98 99 100 99 99 100 100 101 100 101 101 101 101 101 101 97 86 76 73 68 61 54 55 68 83 88 93 92 73 54 55 62 60
30 30 32 32 28 24 24 26 29 31 32 30 28 25 23 23 21 19 17 16 16 14 13 23 35 27 15 17 23 26 26 25 27 30 35 51 72 74 61 59 78 93 92 94 103 106 102 99 98 96 96 98 99 98 98 99 99 99 99 99 100 99 100 100 100 102 103 103 100 92 85 81 71 63 63 60 58 61 64 69 74 63 47 47 54 55
31 31 32 34 33 27 24 25 26 27 30 33 32 27 25 25 24 21 19 17 18 18 15 22 32 30 23 20 19 20 26 32 34 34 35 42 54 66 64 52 51 60 63 69 84 97 101 99 97 99 101 100 98 99 102 101 99 100 101 100 101 101 101 102 104 105 103 100 101 100 98 95 82 66 63 64 60 54 49 47 48 46 44 46 50 57
32 34 33 34 36 33 29 27 26 25 27 30 31 30 30 29 26 23 21 21 22 20 18 21 25 23 21 21 20 18 22 34 42 41 40 43 47 62 75 66 51 50 52 52 60 70 74 75 78 85 95 101 102 102 102 97 94 99 101 100 103 104 102 104 105 104 102 101 100 100 100 102 98 83 69 68 73 68 55 48 47 48 49 51 56 70
31 35 35 34 36 38 36 32 27 25 25 28 32 35 34 31 29 24 22 27 31 27 21 20 23 28 29 22 19 18 21 41 65 62 47 42 42 51 68 69 59 58 59 55 53 49 43 41 45 51 61 74 84 92 98 100 99 101 101 100 102 103 100 103 105 102 100 101 100 99 99 101 104 99 85 76 79 80 66 54 59 69 70 65 66 81
27 32 35 35 35 39 41 37 30 27 27 29 34 37 34 33 32 28 24 27 34 34 29 22 20 30 37 28 19 18 21 45 81 82 54 38 37 42 56 64 59 57 57 53 49 44 37 31 29 31 36 42 47 53 64 75 83 86 82 75 75 78 79 86 98 104 104 101 99 99 101 101 101 102 99 86 79 80 70 59 71 94 97 83 79 89
24 27 33 36 36 39 42 38 33 32 32 32 33 35 36 34 33 33 29 27 30 33 32 28 25 28 35 31 22 18 17 30 60 77 66 50 42 38 45 58 62 59 54 47 42 42 40 32 25 26 29 31 32 32 33 37 43 47 46 40 37 42 46 50 66 88 101 104 102 99 100 103 99 100 104 100 93 90 79 62 66 89 100 94 92 98
24 24 28 34 36 39 40 38 37 36 32 29 28 32 37 36 33 34 33 29 30 33 32 32 32 34 43 47 37 23 15 15 34 63 74 66 52 37 28 34 46 54 56 52 47 48 48 41 33 28 26 25 27 29 29 28 27 27 28 28 25 26 29 28 32 49 71 92 103 101 98 102 102 100 101 101 100 103 97 80 66 68 79 88 96 101
28 25 25 30 34 37 37 38 41 39 34 31 29 28 32 36 36 35 33 31 34 36 33 33 36 38 45 54 50 34 22 17 24 47 69 75 67 52 37 31 33 42 50 52 50 50 51 50 45 38 30 25 23 24 26 27 27 25 23 23 23 22 23 24 23 23 34 60 86 95 93 95 99 101 102 99 97 101 104 99 87 74 67 67 71 80
32 30 27 28 30 34 36 38 40 38 35 34 34 30 28 33 39 38 35 34 35 37 35 34 36 39 39 39 39 36 32 29 27 40 72 94 88 75 70 64 49 35 33 38 42 44 43 45 47 42 35 30 27 25 25 25 26 26 24 22 22 22 21 21 23 22 21 31 50 62 63 65 71 79 87 90 91 93 97 100 99 94 85 75 65 58
35 34 31 29 28 29 33 36 38 37 35 35 37 35 30 30 36 40 39 37 35 36 39 36 34 39 39 33 31 34 41 46 39 40 69 101 102 92 93 95 81 56 36 28 33 36 33 35 38 33 30 35 36 31 29 26 22 21 22 22 21 21 21 19 19 22 23 23 28 33 36 38 42 47 55 65 74 81 88 94 98 100 99 95 89 79
47 43 35 30 28 28 30 34 37 39 39 38 39 40 36 32 34 39 41 40 35 35 39 39 36 37 39 38 36 36 42 48 43 36 52 84 103 104 99 99 98 86 62 45 43 40 34 34 37 30 23 29 38 40 37 31 24 19 18 19 20 20 21 21 19 20 23 24 25 27 29 32 34 35 37 43 50 59 70 79 87 95 100 101 99 96
63 57 43 35 32 30 30 32 35 38 38 36 37 42 45 42 38 37 39 41 40 37 37 40 40 37 37 39 41 40 41 45 42 34 34 51 75 90 89 88 92 88 72 58 54 50 42 41 49 48 34 23 26 34 36 34 31 28 23 19 18 18 18 19 20 20 21 23 25 26 27 29 31 34 35 36 39 44 51 59 65 71 84 98 100 97
66 58 49 42 37 35 36 35 36 41 42 41 43 48 48 44 41 40 39 39 40 39 37 39 42 41 39 38 39 40 43 46 46 42 35 33 41 53 61 65 70 71 67 58 50 48 46 44 48 53 48 37 29 28 28 30 33 35 35 31 25 21 18 18 19 19 20 21 23 25 26 27 29 32 34 34 37 38 39 44 49 47 51 69 85 93
71 65 60 52 43 42 45 44 44 50 52 49 51 51 45 40 42 47 47 43 40 41 40 39 40 42 43 42 40 39 40 41 42 44 46 45 41 38 40 43 45 50 58 58 50 43 42 40 40 44 47 47 43 35 29 30 33 36 38 35 29 23 20 19 19 19 20 20 21 23 24 26 27 29 31 33 37 40 37 36 38 37 34 38 50 65
82 76 69 63 54 49 49 49 53 63 67 63 56 50 44 41 40 43 47 47 44 43 43 41 40 40 42 43 43 42 41 42 41 41 44 49 50 45 40 37 33 33 40 50 52 47 40 37 38 40 40 40 41 38 33 32 36 39 38 34 29 24 22 21 20 19 19 19 19 19 19 20 22 24 27 30 34 39 40 36 30 29 30 30 31 36
88 84 78 76 71 65 63 59 55 59 71 75 65 50 43 43 43 41 42 43 41 40 39 39 39 40 41 42 43 44 44 45 44 43 42 44 49 51 47 42 36 30 30 39 49 51 46 40 37 36 34 33 34 33 30 30 35 39 38 36 33 29 27 25 22 19 18 18 17 17 16 16 17 19 22 26 29 32 37 36 30 26 27 28 29 30
83 87 84 80 78 78 80 79 70 62 65 75 75 63 50 45 44 44 43 42 41 39 36 34 36 40 42 42 43 45 47 46 45 46 48 46 45 48 50 47 42 34 27 28 36 42 42 40 38 36 34 33 31 29 26 25 29 32 34 33 32 31 32 32 28 22 19 17 16 16 15 15 15 16 18 20 22 24 27 31 31 28 26 26 26 28
Wind_Speed
62 62 63 63 64 65 65 66 66 65 62 61 60 60 60 59 56 52 48 45 42 40 38 36 33 33 33 32 31 28 25 24 24 22 20 20 17 13 10 9 9 7 4 2 2 5 5 6 9 11 13 15 17 19 20 20 20 21 21 21 20 20 20 20 19 18 18 19 20 22 23 24 25 27 27 25 24 22 21 20 20 21 21 21 22 21
62 62 62 64 66 67 68 69 69 66 64 63 61 60 59 60 59 54 50 46 43 42 42 39 36 35 34 33 32 29 25 23 23 21 21 20 18 16 14 12 11 10 8 4 1 3 4 5 6 9 11 13 15 18 20 20 20 21 21 21 21 20 20 20 20 19 19 19 20 21 22 23 24 25 27 27 25 24 22 21 20 20 20 19 19 20
64 63 64 66 67 69 71 70 69 67 66 65 63 62 61 62 62 57 53 46 38 36 42 43 40 37 33 32 33 30 26 25 22 22 24 23 21 19 18 15 13 12 10 7 3 1 3 4 4 6 8 10 12 15 18 20 20 21 21 21 22 21 20 20 20 20 20 20 20 21 21 22 23 24 26 27 27 25 24 23 22 20 19 19 18 18
66 66 66 67 69 71 72 70 69 68 67 66 66 65 65 65 64 61 57 51 39 34 40 43 44 42 37 35 36 32 27 25 24 24 26 26 24 22 20 18 16 14 12 10 6 2 1 2 3 4 5 8 11 13 16 19 20 20 21 21 21 22 21 20 20 20 21 20 19 20 20 22 23 23 24 26 27 26 25 23 23 22 21 20 19 18
68 68 69 70 71 72 73 72 71 70 69 69 69 69 67 66 67 65 61 57 48 40 40 41 42 42 39 38 38 35 30 28 28 28 28 27 26 25 23 21 19 16 14 12 8 5 2 0 1 2 3 5 8 10 13 16 18 19 19 19 20 21 21 20 20 20 20 20 19 20 20 21 22 23 23 24 26 26 25 25 23 23 22 21 21 19
71 72 72 72 72 73 75 75 72 71 72 72 71 72 70 68 68 67 64 62 55 47 44 43 41 39 39 38 36 36 35 32 30 29 28 28 27 27 26 24 22 19 16 14 11 9 6 3 2 1 1 3 5 7 10 13 15 17 18 18 18 19 20 20 19 19 19 20 20 21 21 21 21 22 22 22 23 25 25 25 24 23 23 23 22 21
75 76 74 72 73 75 77 75 72 71 73 74 75 76 73 70 69 66 65 64 60 54 49 46 44 40 36 34 34 36 37 35 32 30 30 30 29 28 27 26 25 23 19 16 15 12 9 6 4 3 1 1 2 3 5 8 11 14 15 16 16 16 18 19 19 19 19 19 19 20 21 21 21 21 22 21 21 23 24 25 24 24 23 23 23 22
79 78 75 74 75 75 74 73 72 73 76 78 79 76 73 71 70 67 66 65 63 59 53 49 49 46 37 32 33 37 37 34 32 32 31 31 31 29 28 28 27 25 22 19 18 16 12 9 7 5 4 2 1 2 3 4 6 10 12 14 13 13 15 17 18 18 18 18 18 19 20 21 21 21 21 21 21 21 22 23 24 24 23 23 23 23
84 81 77 77 77 74 73 74 75 77 79 80 78 74 73 71 68 68 69 68 66 64 58 52 51 51 45 38 34 36 37 34 32 33 33 31 31 30 29 30 28 26 25 23 19 18 16 12 10 7 6 5 3 2 3 4 4 6 9 11 11 11 12 15 17 17 17 18 17 17 18 19 20 20 21 21 21 21 21 21 22 23 23 23 23 23
89 84 78 77 76 73 74 76 77 78 80 80 77 76 74 72 69 70 71 70 68 66 64 59 55 53 50 45 40 38 37 35 34 35 35 34 33 32 32 32 29 27 27 26 22 20 19 16 13 11 9 7 6 4 4 5 4 4 6 8 9 9 9 11 14 14 15 17 17 16 17 17 19 20 20 21 21 20 20 20 21 21 22 22 23 23
87 80 76 78 77 76 78 79 79 80 81 81 79 77 75 73 71 71 71 70 66 63 64 64 61 57 54 50 47 44 41 38 38 38 37 38 37 37 36 34 31 29 28 27 25 23 21 19 17 15 12 10 9 7 6 6 6 5 3 5 7 8 7 8 11 13 13 14 16 16 15 16 17 18 20 21 20 20 19 20 20 20 21 21 22 22
84 79 77 79 78 79 80 80 79 80 81 82 79 77 76 73 72 73 72 72 69 65 64 65 64 61 58 54 51 49 47 44 42 41 40 40 40 41 40 37 34 32 30 28 26 25 24 23 21 18 15 12 11 10 9 8 8 6 4 2 4 6 6 6 8 11 12 12 13 15 15 15 15 16 17 19 19 20 20 20 20 20 20 20 21 21
86 82 80 80 80 80 80 80 80 81 83 83 79 77 77 75 74 76 77 76 74 71 68 67 66 62 59 58 54 52 51 47 46 47 46 43 41 40 40 39 36 33 33 30 28 28 27 26 24 22 18 15 13 13 12 10 9 8 7 4 2 3 4 5 5 8 12 12 11 13 14 14 15 15 16 17 18 19 20 20 20 20 20 20 20 20
87 84 83 84 84 83 82 81 81 83 84 82 79 78 77 77 77 78 78 77 76 76 74 71 69 64 61 61 58 55 54 51 48 49 48 45 42 40 40 41 39 37 37 35 31 30 29 28 27 25 22 19 16 15 15 13 11 10 9 7 4 2 2 3 4 5 9 13 13 11 13 14 14 15 15 16 17 18 19 20 20 20 20 20 20 19
88 86 87 89 89 87 84 84 86 86 85 81 79 78 78 79 79 79 80 79 78 79 79 75 73 68 64 63 60 57 57 55 51 49 49 46 43 41 41 41 41 40 39 36 34 32 31 30 29 27 26 23 20 18 17 16 14 12 11 10 8 6 4 2 2 4 7 10 12 10 11 12 13 13 15 15 15 16 18 19 19 20 20 19 19 19
88 89 90 92 91 88 87 90 90 87 83 80 80 80 80 81 81 81 82 81 80 82 81 78 76 72 68 65 62 58 56 54 51 49 49 48 45 44 44 42 41 41 39 36 34 34 33 32 31 29 28 26 24 22 20 18 17 15 14 14 12 9 8 6 4 3 4 6 8 9 9 9 11 12 13 14 15 15 16 17 17 18 19 19 19 19
90 92 93 93 91 88 89 92 90 85 81 80 82 82 83 84 84 83 83 82 81 80 79 79 78 75 72 68 65 63 58 53 51 48 48 49 47 46 47 45 43 42 40 38 35 35 35 33 32 31 29 29 27 25 23 20 19 19 18 17 16 14 12 10 9 6 4 3 3 6 7 7 8 10 10 12 13 14 14 15 15 16 18 19 19 19
93 95 93 91 90 89 90 90 87 84 84 84 84 86 87 87 86 85 84 82 81 80 80 80 80 78 75 71 69 66 60 53 49 49 49 49 48 48 48 47 46 45 43 43 41 38 38 36 34 33 31 30 30 28 25 23 22 22 21 20 19 18 16 14 12 10 7 5 3 1 4 5 6 6 6 8 10 12 12 13 13 14 16 18 18 18
94 95 91 89 89 88 87 87 84 84 86 86 86 88 89 88 87 85 84 82 80 81 82 81 81 81 78 74 71 69 63 55 49 48 49 50 51 51 49 49 49 46 43 44 45 43 42 40 37 35 34 33 33 31 28 26 24 24 23 22 22 21 20 18 16 14 11 8 7 5 3 2 3 3 3 4 7 9 10 11 11 12 13 16 17 17
93 93 91 90 91 89 87 88 86 86 87 86 87 88 87 87 87 86 85 84 82 83 84 83 83 83 82 80 77 73 68 61 54 49 49 51 51 51 50 50 49 46 41 40 43 45 45 44 41 38 37 36 36 36 33 30 27 25 24 24 24 24 22 21 19 17 14 11 9 9 7 5 4 1 1 2 4 5 7 8 9 10 11 13 15 16
93 93 92 93 92 89 88 89 88 88 88 88 88 88 87 87 86 84 84 84 83 84 85 85 86 85 84 84 82 79 73 65 60 57 54 53 49 45 47 49 48 48 46 40 41 46 45 45 45 42 40 40 39 38 35 32 30 27 26 26 26 25 24 23 22 19 17 15 13 12 11 9 7 5 3 2 3 3 4 6 7 7 8 10 12 13
94 94 94 94 92 90 91 92 91 90 90 89 89 89 87 87 86 84 85 86 86 85 85 86 87 85 84 84 82 81 76 68 64 64 62 57 50 44 44 45 44 48 52 46 41 44 44 43 44 42 42 43 41 39 35 33 32 30 28 29 29 28 26 26 25 23 20 18 16 15 14 12 10 8 6 4 4 4 3 4 5 5 5 6 8 9
91 93 93 94 94 93 94 93 91 89 89 89 90 89 88 88 88 88 89 89 87 86 86 86 87 85 83 82 80 78 75 70 64 63 65 63 56 49 46 43 41 44 53 52 45 43 44 42 42 41 40 42 43 41 39 35 33 32 32 32 32 30 28 28 28 27 24 21 20 18 17 15 13 11 9 7 6 6 5 5 5 5 4 4 5 6
83 90 93 95 95 94 93 92 90 90 90 90 92 91 89 89 90 90 90 91 90 90 89 88 88 86 80 77 76 73 70 70 69 66 67 64 57 53 48 44 42 43 51 54 47 43 46 46 45 44 41 42 42 41 41 39 36 34 35 35 34 32 31 31 31 30 27 24 22 21 19 18 16 14 12 10 9 9 8 8 7 7 6 5 5 5
79 89 93 95 96 95 94 93 92 92 92 90 90 88 87 88 88 88 89 91 91 93 93 92 91 87 81 77 72 66 65 70 73 71 68 61 53 52 52 47 43 41 46 53 48 44 49 51 48 47 44 42 41 40 41 42 40 38 37 37 36 35 34 34 34 32 30 27 25 23 21 20 19 17 15 13 12 11 11 11 10 9 9 8 7 7
75 85 91 95 96 96 96 95 95 95 92 89 88 88 88 89 90 90 92 92 92 94 94 93 92 86 82 80 70 61 63 70 72 72 72 65 54 51 53 52 46 40 43 54 55 50 52 54 50 48 47 45 44 44 42 42 40 39 38 37 37 37 36 35 34 32 31 30 28 26 25 23 22 21 19 16 14 12 12 13 12 11 10 10 10 10
68 79 88 94 96 97 96 96 97 96 93 92 92 93 95 96 96 95 94 93 93 95 95 94 92 87 83 82 73 63 63 67 67 67 67 68 64 56 54 53 49 44 45 54 60 57 55 57 54 51 51 50 49 48 46 43 41 39 40 39 37 37 37 36 35 34 34 33 31 30 28 27 25 24 23 21 17 14 13 13 14 13 12 12 12 12
63 73 84 90 94 97 97 97 99 98 96 95 94 95 97 96 95 93 91 91 91 93 95 94 92 90 87 86 82 73 66 66 68 60 49 52 61 59 57 54 49 48 51 54 60 60 57 58 57 55 55 51 49 50 49 47 45 43 42 41 39 39 41 42 41 40 39 38 35 33 32 31 29 28 27 25 23 20 16 15 16 16 16 15 14 14
58 67 77 85 91 97 99 99 100 100 98 96 95 95 95 92 92 90 89 89 90 91 94 93 91 90 89 88 90 86 75 69 71 65 46 38 44 50 54 55 50 51 56 57 60 62 60 58 56 55 59 57 50 49 50 50 50 49 47 46 46 47 50 49 46 44 43 42 40 37 36 35 34 32 30 28 27 26 23 19 18 18 19 19 18 18
55 63 71 79 87 93 97 99 99 99 99 98 98 97 96 92 92 92 90 90 91 91 93 93 91 91 90 89 92 92 85 75 75 77 64 46 38 38 42 48 50 51 53 55 59 64 63 61 57 53 56 58 53 48 47 49 52 52 50 50 51 52 53 52 49 47 46 45 44 41 38 37 37 35 33 31 30 30 29 26 24 22 22 22 22 21
53 59 66 74 81 88 93 97 98 100 99 100 99 97 96 93 92 93 93 92 93 92 92 93 93 92 90 89 91 92 89 82 78 81 81 67 52 45 40 40 46 48 47 47 53 62 66 64 61 57 52 53 55 52 48 48 50 53 53 51 52 53 53 53 52 50 49 49 46 44 41 39 38 37 34 32 31 31 31 30 28 26 25 25 25 24
52 56 62 69 76 82 89 94 97 100 101 101 100 98 96 94 93 94 94 93 93 92 90 93 94 92 89 89 93 93 92 89 83 82 86 80 67 60 54 47 46 47 47 45 43 50 62 65 62 59 54 52 56 57 54 51 50 53 56 55 53 54 54 54 54 53 52 51 50 47 46 43 41 39 36 34 34 34 33 33 32 30 28 28 27 26
50 54 58 64 71 78 85 91 97 101 102 102 102 99 97 96 95 95 94 93 92 91 90 91 91 91 88 86 90 93 92 91 88 86 87 83 76 75 74 68 59 49 48 52 45 38 47 56 57 56 55 55 55 57 58 57 53 54 58 57 54 55 55 53 54 54 53 53 52 50 48 46 45 43 40 40 40 38 36 36 35 34 32 30 30 30
50 53 56 60 66 73 80 88 94 99 101 102 101 99 97 97 96 95 95 94 92 91 90 86 84 90 92 88 88 90 90 90 90 89 89 87 81 80 85 88 80 64 54 58 56 45 42 48 51 51 51 50 49 52 56 56 53 55 59 59 55 55 56 56 55 54 53 52 52 53 52 51 49 47 45 45 45 42 39 38 37 36 35 33 33 34
52 51 53 57 63 69 76 83 88 94 97 98 100 99 97 98 99 97 95 93 92 92 91 85 81 86 92 92 92 92 90 91 92 90 90 89 84 80 85 93 93 86 75 68 65 62 58 56 54 51 50 46 42 45 48 48 48 52 58 61 57 52 53 55 56 55 53 50 50 51 53 53 52 51 51 50 49 47 45 43 41 40 38 36 37 37
53 51 51 54 59 64 70 76 83 90 94 95 97 100 99 99 100 98 96 94 93 93 93 90 86 87 89 92 94 93 89 88 89 89 89 92 91 85 84 90 95 96 94 85 79 78 77 75 68 61 57 52 48 48 51 53 54 54 55 59 59 54 50 50 51 52 52 51 51 50 52 52 51 52 53 52 50 50 48 47 46 45 42 41 40 39
52 52 52 52 55 59 64 69 75 83 89 92 95 98 99 100 100 100 98 96 94 95 96 94 90 90 92 94 94 91 88 85 85 88 91 93 96 92 86 87 91 95 97 95 94 94 94 93 89 80 72 67 63 61 60 60 62 60 56 56 57 56 54 52 53 53 52 52 53 53 53 53 52 52 52 50 49 48 47 47 47 46 45 44 43 41
49 53 54 53 53 55 59 64 69 74 81 87 91 95 99 100 101 101 100 96 92 94 97 96 93 90 91 94 95 92 89 82 78 85 95 96 96 96 91 87 88 91 95 97 98 101 103 104 103 99 93 89 84 80 75 71 68 67 64 62 59 58 59 58 59 59 57 55 55 54 54 55 55 55 53 51 49 48 47 48 47 46 45 45 44 42
44 51 55 53 52 53 57 61 65 69 73 79 85 91 96 100 101 101 102 100 96 96 97 97 96 91 88 91 96 95 92 86 77 79 91 99 99 98 94 91 90 92 94 97 99 101 104 106 107 106 103 101 99 96 93 90 86 83 82 80 76 72 69 66 64 64 63 62 60 58 57 57 58 59 56 53 52 51 50 50 48 45 42 42 43 41
37 46 53 55 54 54 56 58 61 63 66 73 82 87 92 97 101 102 102 101 100 99 97 96 95 92 88 89 95 96 95 92 85 81 86 94 100 102 99 94 93 93 94 96 98 100 102 105 108 108 107 105 103 102 102 102 101 99 96 95 92 89 84 79 74 70 69 68 66 65 63 62 62 62 59 55 53 53 52 53 53 50 46 44 45 45
30 39 48 54 57 57 57 56 57 60 65 72 79 83 86 92 98 101 101 101 101 100 99 97 95 93 89 87 90 95 98 96 91 87 88 91 95 100 102 100 97 96 96 96 97 98 98 100 104 107 108 107 105 104 104 104 103 102 100 99 97 95 92 89 86 81 78 75 73 72 71 68 66 66 63 59 57 56 56 56 56 57 55 51 49 49
24 32 41 49 56 59 59 55 54 58 63 68 72 78 82 86 91 96 99 100 101 101 101 100 98 96 94 91 88 90 95 98 96 94 95 96 95 96 99 102 103 102 100 99 99 100 100 99 100 102 104 106 106 106 105 105 104 103 102 100 99 97 96 94 92 90 87 84 80 78 76 75 73 72 69 66 64 63 62 61 61 62 62 60 57 54
21 26 33 43 52 58 59 57 56 58 60 63 66 71 77 81 85 90 95 98 100 101 102 102 101 99 100 99 95 91 92 96 99 100 99 96 94 94 94 97 102 106 106 103 102 102 103 103 101 101 101 102 104 105 106 106 105 104 104 102 100 99 98 96 95 94 92 91 90 88 85 84 84 82 80 76 73 70 68 65 65 66 67 68 67 65
19 22 27 35 44 53 58 60 60 60 58 58 61 66 72 78 81 85 90 95 98 100 101 103 104 103 102 103 102 99 95 95 99 103 102 97 93 93 94 95 98 103 106 107 106 104 104 105 105 104 103 101 102 103 105 106 106 106 105 105 103 101 100 99 97 96 95 95 95 94 92 92 92 90 88 84 82 79 76 71 67 67 68 70 72 72
19 20 23 28 35 45 53 58 61 61 60 58 57 60 65 72 77 81 85 90 95 99 100 102 105 106 105 105 105 104 101 99 99 103 105 101 95 93 94 96 97 99 102 105 106 105 105 104 105 106 107 105 103 103 103 104 105 106 106 105 105 104 103 102 100 99 98 97 97 96 95 95 94 93 91 89 87 85 84 81 77 73 71 70 72 73
20 21 22 25 29 36 45 51 56 60 62 61 58 57 59 65 72 78 82 86 91 96 99 101 104 106 106 106 106 107 106 104 102 103 106 106 103 99 96 96 98 100 102 103 104 103 104 105 103 104 106 107 107 106 105 104 104 104 104 105 105 106 105 105 104 103 102 100 99 98 97 97 96 94 93 91 90 89 88 88 87 85 81 76 74 74
18 21 23 25 26 29 36 43 49 53 56 60 60 60 61 63 66 71 77 82 87 92 97 100 102 105 107 108 108 108 109 108 104 102 105 108 110 108 104 101 99 99 100 103 105 104 104 105 105 104 103 105 106 108 108 107 105 104 103 103 103 105 105 105 106 105 105 104 103 102 101 99 98 97 95 93 92 93 93 93 93 94 92 87 83 80
18 20 23 25 26 28 31 36 41 44 48 54 60 63 63 63 64 66 71 78 83 88 92 97 101 103 105 107 109 110 111 111 109 106 104 105 108 111 111 108 105 101 98 99 103 105 106 106 106 105 104 104 105 107 108 107 107 106 106 105 105 106 106 106 106 107 107 107 106 106 105 104 102 100 98 96 94 95 97 98 98 97 96 94 91 88
21 21 22 24 26 28 30 32 35 38 41 46 54 61 63 64 66 68 69 74 81 85 88 92 97 102 105 106 108 110 111 112 113 112 109 107 106 108 111 111 109 107 104 101 100 103 106 107 107 106 106 105 105 105 106 106 106 106 107 108 108 108 108 108 109 110 109 109 108 108 108 108 107 104 102 100 98 99 101 103 102 100 98 97 95 94
20 20 21 23 25 28 30 31 33 36 39 41 45 52 58 62 66 68 70 72 76 80 84 87 92 97 102 105 106 108 110 111 112 113 113 112 109 108 109 110 111 111 109 106 103 102 104 106 108 108 107 107 106 106 106 106 106 106 107 107 107 108 109 110 112 114 113 111 110 110 110 110 109 108 106 105 104 104 105 106 105 102 100 99 98 97
19 20 20 22 25 27 29 31 31 33 38 41 41 43 48 54 60 65 69 71 73 76 80 84 87 92 97 102 105 106 109 111 112 112 113 113 113 111 110 110 110 111 112 112 109 106 104 105 106 107 108 108 108 107 107 106 106 106 107 108 108 108 108 109 111 114 115 115 114 113 112 111 110 109 108 109 109 109 109 109 108 105 103 102 100 100
Wind_Direction
222 221 221 220 219 218 217 215 213 212 210 210 209 207 206 204 206 208 209 211 211 213 217 216 220 226 227 232 232 228 232 234 229 224 226 227 224 219 216 215 214 214 222 258 18 43 49 44 37 37 44 49 49 50 50 51 51 51 50 50 49 47 45 44 45 49 52 54 53 52 51 50 51 51 51 52 52 53 55 58 61 64 67 68 69 71
222 221 220 220 219 218 217 216 213 211 209 210 210 208 207 206 206 208 208 209 211 214 217 213 214 222 226 229 228 227 230 224 219 225 227 224 224 223 220 218 220 221 220 220 245 42 49 44 39 38 44 50 53 53 52 52 52 51 50 49 48 48 46 43 43 46 50 53 52 51 51 50 52 52 51 52 53 52 53 54 57 60 62 65 67 69
222 220 219 219 219 218 218 216 214 211 209 209 209 208 208 206 206 207 206 205 206 207 210 209 209 214 219 222 224 226 226 218 217 228 230 225 223 225 224 220 223 227 225 218 212 85 47 41 42 45 46 51 56 56 55 54 54 53 51 50 48 48 47 44 42 43 48 51 50 50 52 52 52 53 51 52 53 53 53 53 54 56 57 60 62 65
222 220 218 218 219 219 218 216 214 212 210 209 209 208 207 206 205 206 204 203 203 199 200 206 208 210 213 217 220 223 220 212 213 220 225 228 227 227 227 224 224 228 227 221 211 200 62 37 43 50 50 53 56 58 58 56 55 54 52 51 50 49 47 46 44 43 46 50 48 47 51 53 53 51 51 51 52 53 54 54 53 54 55 56 57 60
221 220 218 217 218 218 217 215 214 212 210 209 210 210 207 206 204 204 204 204 205 201 198 202 204 205 208 211 214 216 212 206 211 218 222 227 228 227 228 226 226 227 227 227 221 210 203 191 29 51 55 57 56 57 59 57 56 55 53 51 51 51 49 48 46 45 46 49 48 46 48 53 52 49 49 49 50 52 54 55 55 54 54 54 55 57
221 220 218 217 217 217 217 215 212 212 211 209 210 210 208 206 205 203 204 206 207 206 204 203 202 202 204 208 210 211 211 205 207 219 226 227 226 227 227 226 227 227 226 228 227 219 207 206 231 209 68 57 57 56 56 54 54 55 54 52 50 52 51 49 47 46 46 48 48 47 48 52 51 49 49 50 49 50 52 55 56 55 55 54 54 56
221 219 217 217 217 217 217 215 212 212 213 211 210 210 207 206 204 203 205 208 208 208 208 206 204 204 204 209 209 205 208 209 209 216 223 225 226 228 229 227 225 224 222 223 225 223 214 214 230 229 225 28 50 50 47 45 45 49 51 52 50 51 52 51 49 47 47 49 49 48 48 51 52 50 50 51 51 50 50 53 55 56 57 56 56 56
221 218 216 216 216 217 217 215 212 212 213 213 212 210 208 207 204 202 205 206 207 207 207 205 205 205 201 203 205 201 203 209 211 214 219 224 226 228 231 228 224 222 219 219 222 223 222 223 231 231 232 246 341 358 7 19 27 36 43 50 51 51 53 52 50 48 46 48 50 50 48 49 50 49 49 50 52 52 50 51 53 56 58 58 58 58
221 217 215 215 215 215 215 214 213 213 213 213 212 210 209 209 205 203 204 205 205 206 206 204 204 205 203 203 202 199 202 207 208 209 216 224 227 226 228 226 224 222 218 218 220 221 224 228 231 232 232 240 256 300 321 334 354 17 29 41 48 52 57 55 50 47 46 46 49 52 50 49 49 49 48 48 50 52 51 51 52 55 57 59 59 60
218 215 213 215 214 213 214 214 213 214 214 214 212 210 209 208 206 206 206 205 205 205 206 207 206 206 206 206 203 199 203 208 205 205 211 220 224 223 224 225 224 223 220 219 218 220 225 226 230 233 233 239 246 262 292 306 317 345 12 28 39 47 58 59 51 47 46 46 47 51 53 51 49 49 48 47 48 48 49 53 54 54 55 58 59 60
217 213 212 214 213 212 212 212 213 213 214 213 211 210 208 207 206 207 207 206 206 205 207 207 207 208 208 208 207 204 204 206 204 204 208 214 219 219 222 225 226 224 220 217 216 220 225 225 228 231 233 238 242 247 265 284 295 310 344 15 28 37 49 53 51 51 51 49 47 49 54 54 51 47 46 46 47 46 45 49 54 55 55 57 59 60
216 213 213 215 213 212 212 212 212 213 214 213 211 210 208 206 207 208 207 205 205 205 206 206 207 208 208 208 208 206 206 206 205 205 205 209 216 221 224 228 228 225 219 216 216 219 223 225 227 230 232 238 241 243 250 264 279 290 300 335 18 31 36 34 41 49 52 55 53 50 53 57 54 48 45 44 45 44 42 42 48 54 56 56 57 58
214 212 212 214 213 212 213 212 212 213 214 212 210 209 208 206 206 209 208 205 203 204 206 206 206 206 206 205 206 204 204 206 207 206 206 207 214 220 224 225 224 223 221 220 221 222 224 227 229 231 234 237 240 242 244 251 265 277 284 286 318 17 28 23 22 35 44 56 65 57 53 56 57 52 46 43 42 42 41 39 40 46 50 54 55 56
212 210 210 212 212 211 211 211 212 213 214 212 210 209 208 207 207 209 210 207 205 205 206 206 206 206 204 205 205 203 204 206 205 205 206 207 211 214 218 221 222 222 225 225 224 224 226 228 230 233 236 237 237 239 240 245 256 268 274 273 267 275 349 20 9 6 30 55 71 69 58 55 55 53 48 42 40 39 39 38 37 38 40 46 51 53
211 210 209 211 211 209 209 210 210 211 211 210 209 209 208 208 207 209 210 208 206 206 206 206 207 207 206 206 205 202 204 206 205 205 207 208 209 209 213 221 224 227 229 228 225 225 227 228 229 232 237 239 235 234 236 239 248 259 265 267 264 257 262 297 352 349 12 49 70 76 68 58 52 51 48 42 39 38 38 38 37 36 35 37 42 45
210 210 210 211 211 208 208 210 210 209 209 208 208 208 208 209 208 209 210 208 207 207 207 207 207 208 209 209 207 202 201 204 205 206 208 209 209 207 210 217 222 226 232 231 227 226 228 228 229 230 234 237 234 231 231 234 240 249 257 262 261 259 261 265 273 316 349 29 60 75 82 72 57 50 45 40 38 37 37 37 37 35 33 32 33 34
208 210 210 211 211 209 209 211 209 207 208 208 208 207 207 208 208 209 209 209 209 210 209 208 208 210 210 210 209 206 203 204 208 210 208 209 210 208 208 212 215 218 227 231 229 229 230 229 229 229 232 235 234 231 229 229 234 242 249 255 258 259 263 267 264 264 290 325 35 71 86 84 65 52 44 38 37 35 35 36 35 34 33 32 31 29
208 210 210 211 212 210 210 212 209 207 207 207 207 207 207 207 207 208 209 209 209 210 210 209 209 210 210 209 209 210 206 203 207 210 209 207 209 209 209 211 212 214 221 227 229 230 231 232 230 229 230 234 236 234 231 229 232 237 243 248 254 256 260 265 267 259 258 275 275 115 91 84 70 60 45 36 37 35 32 34 36 34 32 33 32 30
209 210 210 210 213 212 212 212 210 208 208 207 208 208 208 207 207 207 208 208 209 210 210 210 209 210 210 210 210 211 209 206 205 205 205 205 206 208 210 212 214 217 221 223 226 227 228 231 232 231 230 233 235 236 234 232 234 237 241 245 250 253 256 259 264 263 256 257 259 244 198 133 103 75 39 25 37 40 34 32 34 33 31 32 32 31
209 210 209 210 212 212 212 213 211 210 210 208 209 209 209 209 208 207 208 208 208 210 210 210 210 210 210 211 212 213 212 211 210 206 204 205 208 209 210 209 212 218 224 226 225 225 224 226 229 231 231 233 235 237 236 234 236 240 242 246 248 250 254 254 257 263 259 251 251 248 237 221 209 208 310 341 13 35 38 34 31 29 29 31 33 34
210 209 208 210 211 211 211 213 211 210 211 209 209 209 209 209 209 208 208 208 209 210 210 210 210 210 210 211 214 215 213 213 217 217 211 208 211 211 209 209 211 216 225 230 227 223 223 225 227 229 232 234 237 240 239 235 237 242 245 248 249 249 251 251 250 257 259 251 246 247 247 242 235 236 254 296 326 354 20 31 32 27 21 26 34 38
210 208 208 209 211 210 211 213 211 211 211 209 209 210 209 209 208 208 209 209 210 211 211 211 211 210 211 211 214 216 216 215 220 223 220 214 213 214 210 211 214 216 222 229 227 221 221 225 227 230 234 237 240 243 242 237 236 241 245 247 249 249 249 249 247 250 255 253 249 249 250 249 245 241 242 258 285 296 320 357 12 15 11 14 26 37
210 208 208 209 210 210 211 213 212 212 212 210 209 210 209 209 208 208 208 208 209 211 212 212 211 210 211 212 214 217 217 217 219 222 223 221 219 218 214 214 216 215 217 223 226 222 218 220 225 229 232 235 239 242 243 242 239 239 242 245 247 248 248 247 246 246 251 254 252 251 251 250 250 246 240 242 257 269 276 295 322 336 339 349 357 12
211 210 209 210 211 211 212 213 213 213 213 211 210 209 209 210 210 208 209 209 208 209 211 212 211 210 209 210 214 218 218 220 220 219 221 224 223 218 214 214 218 217 215 217 222 222 217 217 222 225 225 229 235 239 240 243 243 239 240 243 245 247 248 247 245 244 247 251 252 251 250 249 248 247 246 246 249 256 262 269 285 306 312 312 317 327
211 210 209 210 211 211 211 212 213 214 214 213 212 211 210 212 211 210 210 210 210 210 210 211 210 208 207 206 208 213 217 221 223 219 219 222 220 215 212 214 219 220 214 211 214 216 214 214 217 219 220 223 229 234 236 239 241 240 240 241 242 246 248 245 243 242 244 247 250 251 249 246 244 246 250 252 254 255 258 262 270 282 292 294 295 297
212 210 209 210 211 211 211 212 213 214 213 213 213 212 212 212 212 211 211 211 212 212 212 211 210 207 207 206 205 206 212 217 221 221 220 218 215 212 212 213 217 221 214 209 212 214 214 213 213 213 216 219 222 228 234 236 237 238 240 241 242 244 244 240 239 241 244 246 248 250 249 246 243 245 249 251 255 259 257 258 263 268 273 279 285 289
213 211 211 211 211 211 211 212 213 214 213 213 213 212 212 212 211 211 211 211 212 213 213 212 210 207 207 208 206 204 208 213 215 219 222 221 219 216 213 212 217 223 219 213 214 217 217 217 216 214 215 218 219 222 229 234 236 236 237 239 241 242 241 240 243 247 249 249 249 249 248 246 243 243 246 248 251 256 259 258 259 260 262 266 273 281
214 212 211 211 211 212 211 212 212 213 214 213 214 214 213 212 212 212 212 212 213 214 215 213 210 208 208 209 208 205 207 210 210 212 220 223 221 220 217 216 220 225 223 218 216 217 218 217 218 218 218 220 224 225 227 232 235 235 235 236 237 240 242 244 247 249 249 249 249 248 246 246 245 243 245 247 248 250 254 257 259 258 258 260 264 268
214 213 212 211 212 212 213 212 212 213 214 213 214 216 216 214 214 213 212 213 214 216 216 214 211 210 209 210 210 208 206 209 209 209 211 218 220 220 220 221 222 222 222 220 217 217 219 219 220 220 221 223 229 231 230 232 233 234 234 233 233 236 240 244 245 246 246 247 248 248 246 245 244 243 245 246 247 248 249 252 256 258 258 258 261 262
213 213 212 212 212 213 214 214 214 214 214 213 214 216 216 214 214 214 213 213 214 216 217 216 212 211 210 211 213 211 208 209 211 210 209 210 211 211 214 219 222 221 220 221 219 217 219 223 223 221 223 225 227 230 233 233 233 234 235 235 234 234 237 240 242 244 245 245 246 247 247 246 244 244 245 246 247 249 250 251 253 256 257 256 257 259
213 213 212 212 212 213 214 214 215 215 215 215 215 215 216 215 214 214 213 213 214 215 217 217 215 212 211 211 213 214 211 210 211 212 212 211 208 202 203 216 227 228 225 224 222 218 219 222 223 223 225 229 229 229 231 233 236 237 236 237 237 236 236 238 241 243 244 243 245 246 246 247 246 245 245 246 248 250 251 253 253 254 255 254 254 255
214 213 212 212 212 213 214 214 215 215 215 216 215 215 216 216 215 215 214 214 215 215 216 218 217 214 213 214 214 215 214 212 211 213 213 212 211 208 206 214 225 228 224 220 219 220 219 220 223 224 228 233 233 231 231 234 240 244 240 237 236 236 236 237 239 242 243 242 244 245 245 245 246 246 246 247 249 250 251 254 254 253 253 254 254 254
216 214 213 212 212 213 214 214 215 216 215 216 216 216 216 216 216 216 215 215 215 215 216 219 218 216 216 216 215 216 216 215 214 215 214 214 216 214 212 216 220 221 217 213 215 220 219 219 223 227 230 236 238 237 235 236 242 245 239 235 235 236 235 237 238 240 242 242 242 243 243 243 243 245 247 250 252 251 251 253 253 252 252 254 255 255
217 216 214 213 213 213 214 215 216 216 216 216 216 216 216 217 217 217 216 216 216 215 216 218 219 219 219 218 217 217 217 216 216 216 215 215 217 217 216 217 219 218 215 212 214 217 216 216 219 222 225 231 236 237 236 235 239 243 237 232 233 234 234 236 237 238 239 241 242 243 243 242 242 243 245 247 250 252 252 251 252 253 253 253 253 254
219 218 216 215 214 214 215 215 216 216 217 217 217 217 217 217 218 218 217 217 217 216 216 216 217 218 220 219 219 218 217 217 218 218 217 216 217 218 219 219 219 219 219 216 215 216 217 218 218 218 221 225 227 227 226 223 229 236 233 228 227 230 231 233 234 234 235 237 241 244 245 243 242 242 242 242 244 247 250 252 254 255 255 254 253 253
220 219 218 217 216 215 216 217 217 216 216 217 218 218 217 218 218 218 217 217 217 217 217 217 216 217 218 219 220 219 218 218 220 221 221 220 219 220 221 220 221 222 223 221 220 220 223 225 225 222 222 222 218 215 214 215 221 227 228 225 226 228 229 228 228 230 230 232 236 241 244 245 244 243 242 242 243 243 244 248 251 252 253 254 254 254
220 220 219 219 217 216 217 217 218 218 217 217 218 218 218 219 219 218 218 218 218 218 218 218 218 218 219 219 219 219 219 220 222 223 222 223 222 221 220 221 222 223 224 224 224 224 226 229 230 227 225 225 223 218 215 216 220 223 224 223 224 228 229 227 224 224 225 227 230 235 241 245 247 245 243 241 241 240 240 243 246 247 250 253 255 257
220 220 220 220 219 218 218 218 218 218 217 217 218 218 218 219 219 219 218 217 219 219 219 219 218 218 220 220 219 219 218 219 223 224 224 224 224 222 221 221 221 222 224 225 225 226 227 229 231 231 230 230 231 229 226 224 223 224 227 228 227 229 232 231 227 225 223 223 226 230 236 242 245 247 245 240 239 239 240 242 244 246 249 251 254 257
221 220 220 220 220 219 220 219 218 217 217 217 218 218 219 219 220 220 219 217 218 220 220 220 219 219 220 221 220 219 218 218 221 224 224 224 224 223 223 223 223 223 225 225 225 226 227 228 230 232 233 233 233 234 234 233 233 234 236 238 237 236 236 236 234 231 229 226 226 228 233 236 239 243 244 241 239 241 241 240 240 240 242 245 249 253
221 221 220 220 220 221 222 222 219 218 217 217 217 218 219 219 220 221 220 218 218 220 220 220 220 220 221 223 222 220 219 219 222 227 227 225 225 225 225 224 224 224 226 226 226 226 227 228 229 231 233 234 234 235 235 236 238 239 241 242 241 241 240 239 237 236 235 232 229 229 231 233 235 237 239 240 241 243 242 238 236 235 237 241 245 247
224 222 221 220 220 221 223 223 222 220 219 218 217 217 218 219 220 221 221 219 219 220 220 220 220 219 220 222 222 221 220 220 222 227 229 228 228 227 226 226 226 226 227 227 227 227 228 228 229 230 232 234 235 235 236 236 238 239 240 241 241 241 241 240 239 238 238 237 234 232 232 233 233 234 235 236 239 243 244 240 236 235 238 241 242 242
230 224 221 221 222 222 223 223 223 223 221 220 219 218 218 219 219 220 221 220 220 220 220 221 220 219 219 220 220 220 220 220 221 224 228 229 230 229 228 228 228 228 228 228 229 229 230 230 230 230 232 233 235 236 237 237 238 238 239 240 240 240 241 241 241 239 239 238 236 235 235 235 235 236 236 234 235 240 244 245 243 240 240 240 241 241
239 229 223 221 222 223 223 223 224 225 224 222 221 221 219 219 220 220 221 221 220 220 221 221 221 221 221 222 221 221 221 220 221 222 225 227 228 227 227 228 229 229 229 229 230 230 231 232 232 232 232 233 234 236 237 238 239 239 239 240 240 240 240 241 241 241 240 239 238 238 240 241 241 241 241 239 237 238 241 244 246 246 245 244 244 244
249 240 231 225 222 222 224 224 225 227 227 225 224 223 221 220 221 221 221 221 220 220 221 222 222 222 223 223 224 223 222 221 221 222 223 225 226 227 227 228 229 230 230 230 230 231 232 233 233 234 234 234 235 236 237 238 239 239 240 240 240 240 240 240 241 241 241 241 240 240 242 243 244 244 244 243 242 240 240 239 240 243 246 247 247 247
250 246 239 232 226 223 224 225 226 227 228 227 226 226 224 222 222 222 222 222 221 220 221 222 222 222 223 223 224 223 223 223 223 223 223 225 227 229 229 229 229 230 230 230 230 231 232 233 234 235 235 234 235 236 237 238 239 239 240 240 240 241 241 241 240 240 241 241 242 241 242 243 244 244 244 244 244 243 242 240 238 239 241 243 246 247
244 243 240 236 230 225 224 225 226 227 228 227 226 227 226 224 223 223 223 223 222 221 221 222 222 223 223 223 223 224 225 226 226 225 225 225 227 228 229 231 231 230 230 230 230 231 231 231 233 235 235 234 235 236 237 238 239 240 240 240 241 241 241 241 241 241 241 241 242 242 242 242 243 244 244 244 244 244 244 243 242 241 240 240 241 243
238 239 239 238 234 228 225 225 226 228 230 229 228 228 227 226 225 225 225 225 224 223 222 222 222 223 224 224 224 225 225 226 227 227 227 227 228 228 229 231 231 231 231 231 231 232 232 232 232 234 235 235 236 236 237 239 240 241 241 240 241 241 241 241 241 241 241 241 241 242 242 242 243 243 244 244 244 245 244 244 244 244 243 242 241 241
242 239 239 238 234 230 227 226 226 228 230 229 228 229 229 227 225 225 226 226 226 225 224 224 223 224 224 224 224 225 225 226 226 227 227 228 229 229 229 230 231 232 232 232 232 233 233 233 233 234 235 236 237 237 238 239 239 241 241 241 241 242 242 242 242 242 242 241 241 242 242 242 242 243 243 243 244 245 245 245 244 245 246 246 244 243
248 243 239 237 234 231 230 228 226 227 229 229 229 230 231 229 227 226 226 226 226 226 226 225 225 225 225 225 225 225 226 226 227 228 228 229 230 230 230 231 232 232 233 233 233 233 234 235 235 234 235 236 237 238 239 239 240 241 242 242 242 243 243 243 243 242 242 242 241 241 242 242 242 242 243 243 243 244 245 246 246 246 246 247 247 246
251 249 242 237 235 233 233 233 229 226 229 231 232 231 231 229 229 229 229 228 228 228 228 227 227 226 227 227 226 226 226 227 227 228 229 230 231 232 232 232 232 232 232 233 233 234 234 235 235 235 236 237 237 238 239 239 240 241 243 243 243 244 244 244 244 244 243 242 242 242 242 242 243 242 243 243 243 244 245 247 247 247 247 247 247 248
250 249 245 240 238 234 231 234 233 228 228 232 234 233 232 230 228 229 229 230 230 230 229 228 227 227 228 228 228 228 228 228 228 228 229 230 231 232 233 233 233 233 233 233 233 233 234 235 235 235 236 237 238 238 239 239 240 241 243 244 244 245 244 244 245 246 245 244 243 243 243 243 243 243 243 243 243 244 244 246 248 248 248 248 248 248